Location: Poughquag
(41.6090°N, 73.6820°W)
Time: 03:34:12
(UTC-04:00)

Vanguard 2 Rocket - Pass Details

Date: 29 May 2020
Orbit: 556 x 3324 km, 32.9° (Epoch: 06 July)

Event Time Altitude Azimuth Distance (km) Brightness Sun altitude
Rises 17:36:35 0° 253° (WSW) 4,327 11.4 28.1°
Reaches altitude 10° 17:39:02 10° 249° (WSW) 3,638 11.2 27.7°
Maximum altitude 17:48:46 58° 173° (S) 2,441 9.3 25.9°
Drops below altitude 10° 18:05:22 10° 101° (E) 5,920 10.5 22.8°
Sets 18:10:38 0° 98° (E) 7,159 10.9 21.8°
